www.pogodaiklimat.ru

Погода и климат >> Архив погоды >> Австралия >> Onslow Airport


ПОГОДА в Onslow Airport

  • Прогноз погоды в Onslow Airport
  • Монитор погоды в Onslow Airport
  • Климат города

АРХИВ ПОГОДЫ в Onslow Airport

Время (UTC), дата Ветер
(напр.,м/с)
 
Видим.   Явления Облачность Т
(С)
Тd
(С)
f
(%)
Тe
(С)
Тes
(С)
Комфортность P
(гПа)
Po
(гПа)
Тmin
(С)
Tmax
(С)
R
(мм)
S
(см)
13 14.02 ЮВ 6 н/о в посл. час осадки н/о +27.4 +23.2 78 +37 +37 очень
душно
1009.6 1008.4 +34.5 1
15 14.02 Ю 6 н/о н/о +26.9 +24.0 84 +37 +37 очень
душно
1009.5 1008.3
16 14.02 Ю 3 н/о н/о +26.7 +24.0 85 +37 +37 очень
душно
1009.4 1008.2
18 14.02 В 5 н/о н/о +26.3 +23.6 85 +36 +36 очень
душно
1008.4 1007.2
19 14.02 В 5 н/о н/о +26.2 +23.3 84 +35 +35 очень
душно
1008.1 1006.9
21 14.02 Ю 3 н/о н/о +25.7 +23.6 88 +35 +35 очень
душно
1008.5 1007.3
22 14.02 ЮЗ 4 н/о н/о +25.6 +23.5 88 +35 +35 очень
душно
1008.9 1007.7
00 15.02 Ю 3 н/о н/о +28.2 +24.0 78 +39 +39 очень
душно
1010.1 1008.9
01 15.02 ЮВ 4 н/о н/о +30.5 +23.7 67 +42 +42 опасность
перегрева
1010.3 1009.1 +25.4 1
03 15.02 СВ 3 н/о н/о +33.4 +22.5 53 +43 +43 опасность
перегрева
1009.3 1008.1
04 15.02 С 5 н/о н/о +34.4 +23.1 52 +45 +45 опасность
перегрева
1008.6 1007.4
06 15.02 СЗ 7 н/о н/о +33.3 +23.3 56 +44 +44 опасность
перегрева
1007.5 1006.3
07 15.02 СЗ 7 н/о н/о +31.6 +25.2 69 +46 +46 опасность
перегрева
1007.4 1006.2
09 15.02 СЗ 6 н/о н/о +30.4 +24.5 71 +43 +43 опасность
перегрева
1007.4 1006.2
10 15.02 СЗ 7 н/о н/о +28.6 +25.0 81 +41 +41 опасность
перегрева
1006.8 1005.6
12 15.02 З 5 н/о н/о +27.3 +25.5 90 +40 +40 очень
душно
1008.3 1007.1
13 15.02 З 4 н/о {туман} н/о +27.2 +25.2 89 +39 +39 очень
душно
1009.0 1007.8 +35.3
15 15.02 ЮЗ 5 н/о н/о +28.3 +25.3 84 +41 +41 опасность
перегрева
1009.2 1008.0
16 15.02 ЮЗ 4 н/о н/о +28.3 +25.3 84 +41 +41 опасность
перегрева
1008.9 1007.7
18 15.02 ЮЗ 3 н/о н/о +27.8 +25.0 85 +40 +40 очень
душно
1007.6 1006.4
19 15.02 З 3 н/о н/о +27.2 +25.0 88 +39 +39 очень
душно
1007.3 1006.1
21 15.02 З 2 н/о н/о +26.8 +24.6 88 +38 +38 очень
душно
1007.2 1006.0
22 15.02 ЮЗ 3 н/о н/о +26.6 +24.6 89 +38 +38 очень
душно
1007.7 1006.5
00 16.02 ЮЗ 2 н/о н/о +29.3 +25.7 81 +43 +43 опасность
перегрева
1009.2 1008.0
01 16.02 ЮЗ 1 н/о н/о +31.2 +25.3 71 +45 +45 опасность
перегрева
1009.3 1008.1 +26.6
03 16.02 СЗ 4 н/о н/о +32.9 +25.7 66 +48 +48 опасность
перегрева
1008.7 1007.5
04 16.02 СЗ 5 н/о н/о +33.1 +25.4 64 +48 +48 опасность
перегрева
1008.0 1006.8
06 16.02 СЗ 8 н/о н/о +33.1 +24.8 62 +46 +46 опасность
перегрева
1006.6 1005.4
07 16.02 З 7 н/о н/о +32.8 +25.1 64 +47 +47 опасность
перегрева
1005.9 1004.7
09 16.02 З 8 н/о н/о +31.7 +25.3 69 +46 +46 опасность
перегрева
1004.8 1003.6
10 16.02 З 8 н/о н/о +30.7 +25.1 72 +44 +44 опасность
перегрева
1005.3 1004.1
12 16.02 В 6 н/о н/о +27.9 +21.4 68 +36 +36 очень
душно
1010.0 1008.8
13 16.02 СВ 7 н/о н/о +27.5 +20.8 67 +34 +34 очень
душно
1009.0 1007.8 +34.4
15 16.02 С 5 н/о н/о +27.4 +25.4 89 +40 +40 очень
душно
1008.3 1007.1
16 16.02 Ю 6 н/о в посл. час осадки н/о +26.3 +24.2 88 +37 +37 очень
душно
1008.5 1007.3
18 16.02 Ю 6 н/о н/о +27.1 +23.6 81 +37 +37 очень
душно
1008.3 1007.1
19 16.02 ЮВ 5 н/о {туман} н/о +26.8 +23.7 83 +37 +37 очень
душно
1007.4 1006.2
21 16.02 В 3 н/о н/о +26.8 +23.5 82 +36 +36 очень
душно
1007.4 1006.2
22 16.02 ЮВ 4 н/о н/о +26.7 +23.6 83 +36 +36 очень
душно
1007.7 1006.5
00 17.02 Ю 3 н/о н/о +28.8 +23.7 74 +39 +39 очень
душно
1009.2 1008.0
01 17.02 ЮВ 3 н/о н/о +30.8 +24.2 68 +43 +43 опасность
перегрева
1009.7 1008.5 +26.1
03 17.02 С 7 н/о н/о +33.5 +24.7 60 +47 +47 опасность
перегрева
1009.6 1008.4
04 17.02 С 7 н/о н/о +33.2 +24.9 62 +47 +47 опасность
перегрева
1009.1 1007.9
06 17.02 С 7 н/о н/о +34.2 +26.1 63 +50 +50 опасность
перегрева
1007.8 1006.6
07 17.02 С 7 н/о н/о +34.1 +26.0 63 +50 +50 опасность
перегрева
1007.2 1006.0
09 17.02 СЗ 7 н/о н/о +32.0 +25.6 69 +47 +47 опасность
перегрева
1006.2 1005.0
10 17.02 З 5 н/о н/о +30.3 +24.7 72 +43 +43 опасность
перегрева
1008.7 1007.5
12 17.02 ЮВ 5 н/о н/о +28.4 +22.6 71 +38 +38 очень
душно
1010.6 1009.4
13 17.02 В 9 н/о осадки н/о +27.1 +23.6 81 +37 +37 очень
душно
1010.7 1009.5 +35.3 0.2
15 17.02 ЮВ 3 н/о н/о +27.3 +22.9 77 +36 +36 очень
душно
1010.0 1008.8
16 17.02 Ю 4 н/о н/о +27.0 +22.8 78 +36 +36 очень
душно
1010.4 1009.2
18 17.02 Ю 5 н/о н/о +26.9 +23.4 81 +36 +36 очень
душно
1010.1 1008.9
19 17.02 ЮВ 5 н/о н/о +26.8 +23.3 81 +36 +36 очень
душно
1009.6 1008.4
21 17.02 ЮВ 4 н/о н/о +26.3 +23.6 85 +36 +36 очень
душно
1009.8 1008.6
22 17.02 ЮВ 6 н/о н/о +26.2 +23.3 84 +35 +35 очень
душно
1010.2 1009.0
00 18.02 ЮВ 5 н/о н/о +29.2 +24.5 76 +41 +41 опасность
перегрева
1011.6 1010.4
01 18.02 В 7 н/о н/о +31.5 +24.9 68 +45 +45 опасность
перегрева
1011.7 1010.5 +26.1 0.2
03 18.02 СВ 8 н/о н/о +33.5 +25.2 62 +48 +48 опасность
перегрева
1011.5 1010.3
04 18.02 С 7 н/о н/о +33.3 +25.3 63 +48 +48 опасность
перегрева
1011.1 1009.9
06 18.02 С 8 н/о н/о +32.6 +24.9 64 +46 +46 опасность
перегрева
1010.0 1008.8
07 18.02 С 8 н/о н/о +32.7 +24.5 62 +45 +45 опасность
перегрева
1009.6 1008.4
09 18.02 С 7 н/о н/о +32.1 +25.2 67 +46 +46 опасность
перегрева
1008.9 1007.7
10 18.02 С 6 н/о н/о +30.9 +25.0 71 +44 +44 опасность
перегрева
1009.1 1007.9
12 18.02 С 4 н/о н/о +29.2 +26.0 83 +44 +44 опасность
перегрева
1010.6 1009.4
13 18.02 С 3 н/о н/о +29.1 +25.9 83 +44 +44 опасность
перегрева
1012.3 1011.1 +34.6
15 18.02 СЗ 1 н/о н/о +28.9 +25.7 83 +43 +43 опасность
перегрева
1012.8 1011.6
16 18.02 СЗ 3 н/о в посл. час осадки н/о +24.6 +23.0 91 +33 +33 очень
душно
1012.6 1011.4
18 18.02 ЮЗ 3 н/о н/о +26.2 +24.8 92 +37 +37 очень
душно
1011.2 1010.0
19 18.02 Ю 4 н/о {туман} н/о +25.6 +23.5 88 +35 +35 очень
душно
1011.7 1010.5
21 18.02 Ю 4 н/о н/о +25.8 +23.3 86 +35 +35 очень
душно
1011.8 1010.6
22 18.02 ЮВ 4 н/о н/о +25.6 +23.5 88 +35 +35 очень
душно
1011.9 1010.7
00 19.02 ЮВ 5 н/о н/о +28.5 +24.5 79 +40 +40 очень
душно
1012.4 1011.2
01 19.02 В 4 н/о н/о +30.7 +24.4 69 +43 +43 опасность
перегрева
1012.3 1011.1 +23.3 19
03 19.02 ЮВ 4 н/о н/о +33.3 +23.0 55 +44 +44 опасность
перегрева
1011.2 1010.0
04 19.02 В 3 н/о н/о +35.1 +23.1 50 +45 +45 опасность
перегрева
1010.5 1009.3
06 19.02 СЗ 6 н/о н/о +33.9 +25.0 60 +48 +48 опасность
перегрева
1009.5 1008.3
07 19.02 З 7 н/о н/о +32.1 +25.4 68 +47 +47 опасность
перегрева
1009.2 1008.0
09 19.02 З 7 н/о н/о +31.6 +25.2 69 +46 +46 опасность
перегрева
1008.3 1007.1
10 19.02 З 5 н/о н/о +31.0 +25.4 72 +45 +45 опасность
перегрева
1009.0 1007.8
12 19.02 СЗ 5 н/о н/о +29.3 +26.1 83 +44 +44 опасность
перегрева
1009.7 1008.5
13 19.02 З 4 н/о н/о +29.1 +25.5 81 +43 +43 опасность
перегрева
1010.1 1008.9 +36.0
15 19.02 ЮЗ 4 н/о н/о +28.7 +26.3 87 +44 +44 опасность
перегрева
1011.5 1010.3
16 19.02 З 3 н/о н/о +28.0 +26.0 89 +42 +42 опасность
перегрева
1010.7 1009.5
18 19.02 Ю 5 н/о н/о +28.0 +22.7 73 +37 +37 очень
душно
1010.3 1009.1
19 19.02 Ю 4 н/о н/о +27.3 +22.9 77 +36 +36 очень
душно
1009.8 1008.6
21 19.02 ЮВ 5 н/о н/о +26.9 +21.6 73 +34 +34 очень
душно
1009.8 1008.6
22 19.02 ЮВ 8 н/о н/о +26.9 +21.2 71 +34 +34 очень
душно
1010.1 1008.9
00 20.02 ЮВ 5 н/о н/о +29.8 +22.3 64 +39 +39 очень
душно
1010.7 1009.5
01 20.02 ЮВ 7 н/о н/о +32.4 +22.2 55 +41 +41 опасность
перегрева
1010.6 1009.4 +26.7
03 20.02 В 5 н/о н/о +35.9 +21.3 43 +43 +43 опасность
перегрева
1009.8 1008.6
04 20.02 СВ 3 н/о н/о +36.6 +20.4 39 +43 +43 опасность
перегрева
1009.1 1007.9
06 20.02 СЗ 6 н/о н/о +36.0 +22.2 45 +45 +45 опасность
перегрева
1007.8 1006.6
07 20.02 СЗ 6 н/о н/о +35.9 +21.7 44 +44 +44 опасность
перегрева
1007.5 1006.3
09 20.02 З 6 н/о н/о +33.4 +23.1 55 +44 +44 опасность
перегрева
1007.4 1006.2
10 20.02 З 7 н/о н/о +32.5 +25.6 67 +47 +47 опасность
перегрева
1007.9 1006.7
12 20.02 ЮЗ 4 н/о н/о +29.8 +20.6 58 +37 +37 очень
душно
1009.4 1008.2
13 20.02 З 4 н/о н/о +28.7 +22.4 69 +38 +38 очень
душно
1009.9 1008.7 +38.3
15 20.02 З 3 н/о н/о +28.5 +22.3 69 +37 +37 очень
душно
1009.8 1008.6
16 20.02 ЮЗ 3 н/о н/о +28.9 +23.1 71 +39 +39 очень
душно
1009.9 1008.7
18 20.02 ЮЗ 4 н/о н/о +28.2 +23.1 74 +38 +38 очень
душно
1009.6 1008.4
19 20.02 ЮЗ 5 н/о н/о +28.1 +22.6 72 +37 +37 очень
душно
1009.4 1008.2
21 20.02 Ю 4 н/о н/о +27.5 +23.5 79 +37 +37 очень
душно
1009.6 1008.4
22 20.02 Ю 4 н/о н/о +27.4 +23.8 81 +38 +38 очень
душно
1009.9 1008.7
00 21.02 Ю 5 н/о н/о +30.2 +23.4 67 +41 +41 опасность
перегрева
1011.0 1009.8
01 21.02 Ю 5 н/о н/о +32.6 +22.7 56 +42 +42 опасность
перегрева
1011.3 1010.1 +27.3
03 21.02 ЮВ 5 н/о н/о +36.6 +21.2 41 +44 +44 опасность
перегрева
1010.6 1009.4
06 21.02 ЮЗ 6 н/о н/о +38.5 +19.8 34 +44 +44 опасность
перегрева
1008.6 1007.4
07 21.02 ЮЗ 5 н/о н/о +38.9 +19.7 33 +44 +44 опасность
перегрева
1008.1 1006.9
09 21.02 ЮЗ 3 н/о н/о +35.8 +20.1 40 +42 +42 опасность
перегрева
1007.7 1006.5
10 21.02 СЗ 8 н/о н/о +33.3 +24.5 60 +46 +46 опасность
перегрева
1008.2 1007.0

 

Местоположение метеостанции Onslow Airport (Западная Австралия, Австралия): широта -21.67 долгота 115.12 высота над уровнем моря 4 м.

В архиве по умолчанию представлена погода в Onslow Airport за последнюю неделю. Архивные данные за месяц целиком и за предыдущие месяцы, начиная с января 2011 года, Вы можете получить, выбрав интересующий диапазон дат из раскрывающегося списка и нажав кнопку "Ввод!".

Внимание! Время в таблицах - всемирное. Для получения местного времени необходимо прибавить поправку, которая в Onslow Airport равна 8 ч.

Смотрите также архив погоды в соседних городах и на ближайших метеорологических станциях:

Погода в Thevenard Island (Западная Австралия, Австралия) (27 км)
Погода в Barrow Island Airport (Западная Австралия, Австралия) (93 км)
Погода в Mardie (Западная Австралия, Австралия) (104 км)
Погода в Varanus Island (Западная Австралия, Австралия) (123 км)
Погода в Learmonth Airport (Западная Австралия, Австралия) (124 км)
Погода в Karratha Aero (Западная Австралия, Австралия) (201 км)
Погода в Roebourne Aero (Западная Австралия, Австралия) (234 км)
Погода в Paraburdoo Aero (Западная Австралия, Австралия) (318 км)
Погода в Carnarvon Airport (Западная Австралия, Австралия) (387 км)
Погода в Port Hedland Apardoo (Западная Австралия, Австралия) (392 км)

Пояснения к столбцам:

Ветер - указаны скорость ветра в м/с - средняя за 10 мин, порывы в срок и между сроками (в фигурных скобках) и направление, откуда дует ветер: С - северный, СВ - северо-восточный, В - восточный, ЮВ - юго-восточный, Ю - южный, ЮЗ - юго-западный, З - западный, СЗ - северо-западный.
Видимость - горизонтальная дальность видимости в метрах или километрах. При видимости от 1 до 10 км при отсутствии осадков обычно наблюдается дымка, при ухудшении видимости до 1 км и менее - туман. В сухую погоду видимость может ухудшаться дымом, пылью или мглою.
Явления - указаны атмосферные явления, наблюдавшиеся в срок или в последний час перед сроком; фигурными скобками обозначены явления, наблюдавшиеся между сроками (за 1-3 часа до срока); квадратными скобками обозначены град или гололедные отложения с указанием их диаметра в мм.
Облачность - указаны через наклонную черту общая и нижняя облачность в баллах и высота нижней границы облаков в метрах; квадратными скобками обозначены формы облаков: Ci - перистые, Cs - перисто-слоистые, Cc - перисто-кучевые, Ac - высококучевые, As - высокослоистые, Sc - слоисто-кучевые, Ns - слоисто-дождевые, Cu - кучевые, Cb - кучево-дождевые. Подробнее классификацию облаков см. в Атласе облаков (PDF).
T - Температура воздуха - температура, измеренная на высоте 2 м над землей.
Td - Температура точки росы - температура, при понижении до которой содержащийся в воздухе водяной пар достигнет насыщения.
f - Относительная влажность воздуха - влажноcть воздуха, измеренная на высоте 2 м над землей.
Te - Эффективная температура - температура, которую ощущает одетый по сезону человек в тени. Характеристика душности погоды. При расчете учитывается влияние влажности воздуха и скорости ветра на теплоощущения человека.
Tes - Эффективная температура на солнце - температура, которую ощущает человек, с поправкой на солнечный нагрев. Характеристика знойности погоды. Зависит от высоты солнца над горизонтом, облачности и скорости ветра. Ночью, в пасмурную погоду, а также при ветре 12 м/с и более поправка равна нулю.
P - Атмосферное давление - приведенное к уровню моря атмосферное давление.
Po - Атмосферное давление - измеренное на уровне метеостанции атмосферное давление.
Tmin - Минимальная температура - минимум температуры воздуха на высоте 2 м над землей.
Tmax - Максимальная температура - максимум температуры воздуха на высоте 2 м над землей.
R - Количество осадков - Количество выпавших осадков, мм. При наведении курсора мыши на число - период времени, за который выпало указанное количество осадков.
S - Снежный покров - Высота снежного покрова, см. При наведении курсора мыши на число - состояние снежного покрова и степень покрытия местности в баллах.